THORAD AGENA D DEB

Satellite information

Favourite Embed

Satellite Type and Status

DEBRISIN ORBIT

Key statistics

Satellite THORAD AGENA D DEB at a glance.

Uptime

20528

Days in orbit

Revolutions

≈ 14.5

Per day

Orbit

LEO

Low Earth Orbit

Inclination

69.8

Latest

Satellite identification and parameters

Extended collection of information and parameters for THORAD AGENA D DEB.

Object identification

Identified? True

Debris? True

Object name: THORAD AGENA D DEB

International designator: 1969-082AW

Object number (NORAD): 4178

Object ID (CCSDS): 4178

Country: UNITED STATES OF AMERICA (US)

Current information (Y/N): Y

RCS size: SMALL

Orbital parameters

Period: 99.533 minutes

Inclination: 69.847 deg

SMA: 7114.386 km

Apoapsis: 781.112 km

Periapsis: 691.39 km

RAAN: 104.8479 deg

Eccentricy: 0.00630564

Argument of periapsis: 191.7133 deg

Mean anomaly: 168.2536 deg

Mean motion: 14.46760399 rev/day

Mean motion (dot): 0.00004551 rev/day2

B* drag term: 0.0012422576 1/REarth

Two-line elements (TLE)

Creation date: Dec. 12, 2025, 3:16 a.m.

Reference frame: TEME

Reference center: EARTH

Epoch: Dec. 11, 2025, 6:36 p.m. UTC

TLE line 0: 0 THORAD AGENA D DEB

TLE line 1: 1 04178U 69082AW 25345.77545094 .00004551 00000-0 12423-2 0 9994

TLE line 2: 2 04178 69.8470 104.8479 0063056 191.7133 168.2536 14.46760399912107

Live tracking on map

Real-time ground track for satellite THORAD AGENA D DEB.

In-orbit conjunctions

A list of the most updated potential collisions computed for object THORAD AGENA D DEB.

Target Orbit TCA Probability of collision Miss distance Type
SACI 1 SSO 2025-11-29 12:28:06 0.0002638639 521.0 (m) PAYLOAD
SL-8 R/B LEO 2025-10-28 21:22:01 0.0003254892 928.0 (m) ROCKET BODY
CZ-6 R/B LEO 2025-06-04 04:43:09 0.0001118186 856.0 (m) ROCKET BODY
COSMOS 990 LEO 2025-03-17 00:04:13 0.0004939337 349.0 (m) PAYLOAD
CZ-6A DEB LEO 2025-01-30 18:09:37 0.0003307141 734.0 (m) DEBRIS

Associated space launch

Poppy was the follow-on ELINT system, which succeeded the Grab ELINT satellite system.

THORAD AGENA D DEB was lifted into orbit during the mission ‘Thorad SLV-2G Agena D | Poppy 8A,B,C,D’, on board a Thorad SLV-2G Agena D space rocket.

The launch took place on Sept. 30, 1969, 1:40 p.m. from Space Launch Complex 1W.

For more information about the launch, click the button.

Launch to space Thorad SLV-2G Agena D | Poppy 8A,B,C,D
Thorad SLV-2G Agena D | Poppy 8A,B,C,D

Agency: N/A

Status: Launch Successful

Launch date: Sept. 30, 1969, 1:40 p.m. UTC

Rocket: Thorad SLV-2G Agena D

Launch pad: Space Launch Complex 1W

Location: Vandenberg SFB, CA, USA

...

Latest news about this satellite

There are no fresh news available about this satellite. Check back as we update our databases every day.


Newsletter sign-up

Weekly statistics, charts and insights to help you stay on top of the space industry.